Satellite-Ground Cal/Val Site Overpasses Predictions

Prediction of Satellite NPP Overpassing Cal/Val Site: Antarctic Dome C

Ground Cal/Val Site Location: Latitude: -75.10, Longitude: 123.35; Satellite-Ground Site NADIR distance within 100 km.

Table of predicted overpasses for the next 14.0 days since TLE Epoch: 6/23/2024
Interval Starting Time Ending Time Minimum Distance Time Minimum Distance (km)
1 06/25/2024 14:54:37 06/25/2024 14:55:06 06/25/2024 14:54:52 19.43
2 06/26/2024 14:35:57 06/26/2024 14:36:10 06/26/2024 14:36:04 87.47
3 06/27/2024 07:37:30 06/27/2024 07:37:57 06/27/2024 07:37:44 35.63
4 06/28/2024 07:18:45 06/28/2024 07:19:05 06/28/2024 07:18:55 74.32
5 06/30/2024 15:01:03 06/30/2024 15:01:27 06/30/2024 15:01:15 57.23
6 07/01/2024 14:42:15 07/01/2024 14:42:40 07/01/2024 14:42:28 51.80
7 07/02/2024 07:43:57 07/02/2024 07:44:17 07/02/2024 07:44:07 71.63
8 07/03/2024 07:25:06 07/03/2024 07:25:33 07/03/2024 07:25:19 36.15
9 07/05/2024 15:07:35 07/05/2024 15:07:43 07/05/2024 15:07:39 95.72
